Location: Unspecified
(0.0000°N, 0.0000°E)
Time: 19:10:06
(UTC+00:00)

COSMOS 2251 DEB - Pass Details

Date: 21 December 2025
Orbit: 640 x 672 km, 73.9° (Epoch: 22 January)

Event Time Altitude Azimuth Distance (km) Brightness Sun altitude
Rises 20:31:06 0° 189° (S) 2,940 ? -34.6°
Reaches altitude 10° 20:33:23 10° 186° (S) 2,029 ? -35.0°
Enters shadow 20:33:27 10° 186° (S) 2,003 ? -35.1°
